Weather in Peremoha

Ukraine / Kyiv Region     50°29′52″N   31°15′32″E
temp.,
°C
wind,
m/s
gust,
m/s
humid.,
%
clouds,
%
prec.,
mm/h
press.,
hPa
HPBL,
m
7 march, sun
sun723:00−6w34760 0.0 102539
02:00−6sw47800 0.0 1024109
05:00−5sw612850 0.0 1022292
08:00−3sw7148328 0.0 1019510
11:000wsw8157797 0.0 10161149
14:00+1wsw8158299 0.0 10131294
17:00+1wsw7147999 0.0 10121009
20:000w7158497 0.0 1011763
8 march, mon
mon823:00−1wsw6148626 0.0 1010639
02:00−1w6138759 0.0 1009645
05:00−1w6128897 0.0 1009682
08:00−1wnw4108696 0.2 1010785
11:00−1wnw697232 0.0 10111245
14:000wnw586835 0.1 10111507
17:00−1wnw61180100 0.2 1011690
20:00−3nw6137574 0.3 1014457
9 march, tue
tue923:00−4nw49830 0.0 1015283
02:00−5nw488513 0.0 1016246
05:00−6nw379010 0.0 1018192
08:00−6n479052 0.1 1020548
11:00−5n457863 0.0 1021782
14:00−4n347378 0.0 1022845
17:00−5ene228592 0.0 1023104
20:00−7e128396 0.0 102535
10 march, wed
wed1023:00−7se228496 0.0 102535
02:00−9se228567 0.0 102635
05:00−9se238553 0.0 102547
08:00−8se348575 0.0 1026126
11:00−5se348072 0.0 1026263
14:00−4se348052 0.0 1025365
17:00−6se23870 0.0 1025108
20:00−8se23840 0.0 102646
11 march, thu
thu1123:00−8se23820 0.0 102645
02:00−9se23820 0.0 102639
05:00−9sse23800 0.0 102636
08:00−8sse34790 0.0 102699
11:00−4sse34730 0.0 1026275
14:00−2sse46680 0.0 1025589
17:00−4se48770 0.0 1024195
20:00−5sse597430 0.0 1024205